Location: Newark
(34.3481°N, 134.0494°E)
Time: 01:10:31
(UTC+00:00)

Vanguard 3 - Pass Details

Date: 28 January 2020
Orbit: 508 x 3263 km, 33.3° (Epoch: 19 February)

Event Time Altitude Azimuth Distance (km) Brightness Sun altitude
Rises 08:10:24 0° 249° (WSW) 6,656 15.1 2.6°
Reaches altitude 10° 08:14:28 10° 248° (WSW) 5,858 14.1 1.9°
Maximum altitude 08:34:06 80° 166° (SSE) 3,258 10.3 -1.9°
Drops below altitude 10° 08:51:39 10° 82° (E) 5,321 10.7 -5.3°
Enters shadow 08:53:20 - 82° (E) 5,668 10.8 -5.6°
Sets 08:55:08 0° 82° (E) 6,050 - -6.0°
